Date/Time (UTC),ProbHail,ProbWind,ProbTor,MESH,VIL Density,Flash Rate,Max Flash Density,LJA sigma-level,Max 0-2km AzShear,LLAZ 98th%,MLAZ 98th%,MUCAPE,MLCAPE,CAPE -10C to -30C,MLCIN,SRH 0-1km AGL,EBShear,MeanWind 0-1km AGL,Norm. Sat. Growth Rate,PWAT,WBZ,AvgBeamHgt,size
2019/05/21 21:04,6,29,9,0.26,1.70,1,0.08,0.0,10,7,3,2305,1754,782,1,239,31.4,40.3,0,1.0,2133.6,1520.0,57
2019/05/21 21:06,6,37,9,0.31,1.70,2,0.10,0.0,10,7,6,2321,1774,786,1,242,31.1,40.4,0,1.0,2133.6,1540.0,42
2019/05/21 21:08,6,37,9,0.31,1.70,2,0.10,0.0,10,7,7,2341,1807,790,2,248,30.7,40.4,0,1.0,2164.08,1580.0,41
2019/05/21 21:10,8,33,7,0.39,1.70,2,0.10,0.0,9,7,6,2352,1836,797,2,253,30.3,40.6,0,1.0,2133.6,1560.0,57
2019/05/21 21:12,8,33,6,0.39,1.70,5,0.20,0.0,8,6,4,2349,1874,801,3,263,29.5,40.8,0,1.0,2164.08,1520.0,90
2019/05/21 21:14,9,22,3,0.43,1.80,5,0.20,0.0,5,4,4,2355,1883,801,3,264,29.4,40.8,0,1.0,2194.56,1540.0,56
2019/05/21 21:16,8,12,2,0.43,1.90,6,0.26,0.0,5,3,4,2337,1895,800,5,271,29.0,40.9,0,1.1,2225.04,1510.0,79
2019/05/21 21:18,8,12,3,0.43,1.90,6,0.26,0.0,5,3,2,2254,1876,786,9,288,28.1,41.1,0,1.1,2225.04,1420.0,204
2019/05/21 21:20,8,12,3,0.41,1.90,6,0.26,0.0,4,3,3,2208,1870,776,11,296,27.7,41.2,0,1.1,2255.52,1420.0,214
2019/05/21 21:22,5,12,4,0.30,1.90,7,0.26,0.0,6,3,3,2185,1857,772,12,299,27.5,41.3,0,1.1,2255.52,1390.0,227
2019/05/21 21:24,4,12,5,0.28,1.60,7,0.26,0.0,7,4,3,2120,1827,756,16,310,27.1,41.4,0,1.1,2255.52,1370.0,221
2019/05/21 21:26,5,29,6,0.29,1.50,9,0.36,0.0,7,5,6,2100,1811,749,18,315,26.9,41.5,0,1.1,2255.52,1340.0,247
2019/05/21 21:28,10,48,33,0.41,1.30,18,0.61,3.3,23,6,6,2092,1783,742,21,322,26.6,41.6,0,1.1,2255.52,1310.0,246
2019/05/21 21:30,15,68,76,0.54,1.80,18,0.61,0.0,25,17,9,2088,1733,742,27,335,26.2,41.8,0,1.1,2255.52,1260.0,260
2019/05/21 21:32,17,75,34,0.59,2.00,18,0.61,1.2,25,17,7,2072,1694,740,72,366,25.4,42.6,0,1.1,2225.04,1200.0,551
2019/05/21 21:34,37,78,31,0.85,2.70,19,0.61,0.4,25,17,7,2057,1685,736,77,364,25.4,42.7,0,1.1,2225.04,1180.0,569
2019/05/21 21:36,37,78,66,0.85,2.70,21,0.61,0.3,24,13,8,2061,1684,735,33,344,26.1,42.0,0,1.1,2255.52,1200.0,269
2019/05/21 21:38,37,78,67,0.85,2.70,21,0.61,0.0,24,14,8,2069,1665,735,36,348,26.1,42.0,0,1.1,2255.52,1180.0,299
2019/05/21 21:40,29,81,48,0.73,2.70,21,0.61,0.0,24,14,8,2111,1683,741,50,366,25.8,42.3,0,1.1,2255.52,1140.0,436
2019/05/21 21:42,17,83,77,0.51,2.20,21,0.61,0.0,24,14,10,2049,1659,731,37,350,26.1,42.1,0,1.1,2255.52,1150.0,213
2019/05/21 21:44,12,77,72,0.46,2.40,16,0.61,0.9,18,11,6,2108,1640,735,43,357,26.1,42.2,0,1.1,2255.52,1120.0,282
2019/05/21 21:46,33,81,49,0.83,2.60,16,0.61,0.0,18,11,5,2093,1651,735,62,364,25.9,42.5,0,1.1,2255.52,1100.0,519
2019/05/21 21:48,33,72,32,0.83,2.60,16,0.61,0.0,18,10,5,2168,1643,744,53,362,26.4,42.4,0,1.1,2255.52,1080.0,358
2019/05/21 21:50,33,72,7,0.83,2.60,18,0.61,1.2,12,8,5,2128,1645,739,67,364,26.1,42.6,0,1.1,2255.52,1060.0,431
2019/05/21 21:52,37,65,10,0.87,2.60,18,0.61,0.0,14,9,5,2198,1640,754,61,365,27.1,42.6,0,1.1,2255.52,1040.0,311
2019/05/21 21:54,40,73,24,0.87,2.60,18,0.61,0.0,12,10,9,2200,1642,754,65,365,27.4,42.6,0,1.1,2255.52,1020.0,318
2019/05/21 21:56,64,87,62,0.87,2.60,25,0.61,6.4,12,10,9,2100,1655,824,5,291,40.2,39.0,0,0.9,2133.6,1010.0,326
2019/05/21 21:58,56,80,58,0.80,2.60,25,0.61,0.0,12,10,9,2115,1655,830,5,294,40.0,39.1,0,0.9,2133.6,1000.0,292
2019/05/21 22:00,61,86,74,0.80,2.60,28,0.57,1.8,17,11,7,2150,1656,837,5,297,39.6,39.1,0,0.9,2072.64,1000.0,276
2019/05/21 22:02,61,86,72,0.80,2.60,28,0.57,0.0,17,11,6,2184,1656,844,5,301,39.1,39.2,0,0.9,2042.16,1000.0,242
2019/05/21 22:04,37,72,62,0.53,2.20,28,0.57,0.7,17,11,7,2197,1658,844,6,303,38.8,39.3,0,0.9,2042.16,990.0,273
2019/05/21 22:06,37,72,60,0.52,2.20,28,0.53,0.0,17,12,7,2231,1671,852,6,308,38.3,39.4,0,0.9,2011.68,980.0,266
2019/05/21 22:08,23,69,67,0.53,2.10,18,0.53,0.0,17,12,8,2239,1679,859,6,310,38.1,39.5,0,0.9,1981.2,950.0,237
2019/05/21 22:10,29,68,67,0.53,2.00,22,0.54,1.3,17,12,7,2240,1679,858,6,310,38.1,39.5,0,0.9,1981.2,950.0,242
2019/05/21 22:12,29,64,67,0.53,2.00,22,0.54,0.0,17,11,7,2256,1698,859,7,314,37.5,39.6,0,0.9,1981.2,940.0,235
2019/05/21 22:14,21,67,50,0.41,1.80,22,0.54,0.0,16,10,6,2262,1724,862,8,319,36.9,39.7,0,0.9,1981.2,910.0,204
2019/05/21 22:16,28,69,50,0.54,2.00,22,0.54,0.0,16,10,6,2241,1751,829,12,325,35.1,40.0,0,0.9,1950.7200000000003,940.0,414
2019/05/21 22:18,25,65,51,0.54,2.00,18,0.54,0.1,16,12,6,2259,1746,858,9,322,36.5,39.8,0,0.9,1981.2,900.0,210
2019/05/21 22:20,18,56,57,0.54,2.00,11,0.54,0.0,16,12,7,2266,1761,851,10,324,36.0,39.9,0,0.9,1981.2,880.0,101
2019/05/21 22:22,31,64,57,0.63,1.70,18,0.54,3.4,16,12,7,2239,1779,818,15,331,34.2,40.3,0,0.9,1950.7200000000003,880.0,312
2019/05/21 22:24,31,55,60,0.65,1.60,19,0.54,0.1,16,12,8,2246,1784,826,14,330,34.6,40.2,0,0.9,1950.7200000000003,870.0,214
2019/05/21 22:26,32,64,60,0.65,1.70,19,0.54,0.0,16,12,7,2214,1766,840,13,334,35.0,40.2,0,0.9,1950.7200000000003,830.0,340
2019/05/21 22:28,48,71,49,0.65,2.40,31,0.54,2.5,15,10,7,2197,1773,826,16,337,33.9,40.4,0,0.9,1950.7200000000003,800.0,357
2019/05/21 22:30,57,73,22,0.74,2.40,31,0.54,0.0,10,8,5,2190,1770,823,17,338,33.8,40.5,0,0.9,1950.7200000000003,790.0,362
2019/05/21 22:32,57,78,30,0.74,2.40,31,0.54,0.0,10,8,5,2188,1769,820,17,337,33.7,40.5,0,0.9,1950.7200000000003,800.0,442
2019/05/21 22:34,55,84,38,0.74,2.90,31,0.54,0.0,16,9,6,2148,1769,806,20,338,32.8,40.7,0,0.9,1950.7200000000003,800.0,374
2019/05/21 22:36,33,86,57,0.69,2.90,18,0.54,0.0,16,10,8,2138,1774,810,20,340,32.8,40.8,0,0.9,1981.2,770.0,254
2019/05/21 22:38,37,86,57,0.69,2.90,22,0.54,0.9,16,10,7,2133,1772,809,20,340,32.7,40.8,0,0.9,1981.2,770.0,306
2019/05/21 22:40,42,78,55,0.70,2.70,22,0.54,0.0,16,10,6,2086,1751,792,22,339,31.9,41.0,0,0.9,1981.2,780.0,380
2019/05/21 22:42,42,78,44,0.70,2.70,22,0.45,0.1,11,8,6,2056,1719,782,24,339,31.2,41.1,0,1.0,1981.2,780.0,361
2019/05/21 22:44,39,78,23,0.70,2.70,22,0.45,0.0,10,8,5,2032,1667,769,27,336,30.2,41.3,0,1.0,1981.2,820.0,155
2019/05/21 22:46,16,64,23,0.52,2.30,14,0.45,0.0,11,8,5,2060,1706,779,25,338,31.0,41.3,0,1.0,1981.2,780.0,460
2019/05/21 22:48,16,69,46,0.52,2.10,14,0.45,0.0,11,10,9,2023,1584,768,31,334,29.2,41.7,0,1.0,2011.68,830.0,141
2019/05/21 22:50,21,83,48,0.54,2.60,21,0.57,2.6,11,10,9,2022,1571,769,32,333,29.2,41.7,0,1.0,2042.16,830.0,159
2019/05/21 22:52,22,83,48,0.54,2.60,21,0.57,0.1,11,10,9,2025,1558,769,32,333,28.9,41.8,0,1.0,2042.16,830.0,150
2019/05/21 22:54,21,81,52,0.54,2.60,21,0.57,0.0,11,10,6,1918,1389,682,16,335,33.6,41.8,0,0.8,2042.16,850.0,130
2019/05/21 22:56,21,81,52,0.54,2.30,21,0.57,0.0,11,10,5,1922,1393,689,16,334,33.6,41.8,0,0.8,2072.64,840.0,150
2019/05/21 22:58,13,69,29,0.37,1.90,21,0.57,0.0,11,9,6,1937,1389,691,16,334,33.4,41.9,0,0.8,2072.64,850.0,117
2019/05/21 23:00,8,37,26,0.37,1.90,8,0.57,0.0,11,9,5,1968,1392,703,18,334,32.8,41.9,0,0.8,2103.1200000000003,870.0,107
